Left ArrowRight Arrow

38.83388, -104.82136

Hourly Observations for June 25, 2024

Temp ( °F °C ) Dew Point ( °F °C ) Humidity (%) Winds ( mph kmh ) Pressure ( in mb ) Visibility ( mi km ) Precip ( " mm )
12:55 am 00:55 Clear 72 22.2 42 5.6 34 34 N 5 7 29.56 1001 10 16 0.00 0.00
1:55 am 01:55 Cloudy 71 21.9 41 4.9 33 33 Calm 29.54 1000 10 16 0.00 0.00
2:55 am 02:55 Cloudy 77 25.1 35 1.9 22 22 WNW 7 11 29.53 1000 10 16 0.00 0.00
3:55 am 03:55 Mostly Cloudy 74 23.3 36 2.2 25 25 Calm 29.55 1001 10 16 0.00 0.00
4:55 am 04:55 Mostly Clear 75 23.7 34 1.3 23 23 SSW 5 7 29.53 1000 10 16 0.00 0.00
5:55 am 05:55 Sunny 73 22.7 34 1.1 24 24 Calm 29.56 1001 10 16 0.00 0.00
6:55 am 06:55 Sunny 77 24.8 38 3.4 25 25 Calm 29.60 1002 10 16 0.00 0.00
7:55 am 07:55 Sunny 78 25.6 41 5.2 27 27 Calm 29.60 1002 9 14 0.00 0.00
8:55 am 08:55 Sunny 82 27.9 40 4.2 22 22 N 12 19 29.60 1003 10 16 0.00 0.00
9:55 am 09:55 Sunny 86 29.9 37 3 18 18 NNE 5 7 29.60 1002 10 16 0.00 0.00
10:55 am 10:55 Mostly Sunny 87 30.4 33 0.8 15 15 NE 8 13 29.60 1002 10 16 0.00 0.00
11:55 am 11:55 Partly Cloudy 91 32.5 38 3.4 16 16 E 8 13 29.59 1002 10 16 0.00 0.00
12:55 pm 12:55 Mostly Sunny 87 30.7 34 1.1 15 15 ENE 3 6 29.60 1002 10 16 0.00 0.00
1:55 pm 13:55 Mostly Cloudy 86 30.2 36 2.4 17 17 S 5 7 29.59 1002 10 16 0.00 0.00
2:55 pm 14:55 Mostly Sunny 87 30.8 36 2.1 16 16 SE 10 17 29.57 1001 10 16 0.00 0.00
3:55 pm 15:55 Cloudy 86 30.1 36 2.3 17 17 SE 5 7 29.57 1002 10 16 0.00 0.00
4:55 pm 16:55 Mostly Cloudy 88 31.3 37 2.5 16 16 ESE 10 17 29.56 1001 10 16 0.00 0.00
5:55 pm 17:55 Mostly Cloudy 86 30.2 35 1.6 16 16 SSE 9 15 29.57 1001 10 16 0.00 0.00
6:55 pm 18:55 Cloudy 84 28.8 33 0.5 16 16 Calm 29.57 1002 10 16 0.00 0.00
7:55 pm 19:55 Cloudy 81 27.3 36 2.4 20 20 NW 12 19 29.63 1004 10 16 0.00 0.00
8:55 pm 20:55 Clear 79 26.2 37 2.8 22 22 NW 13 20 29.62 1003 10 16 0.00 0.00
9:55 pm 21:55 Mostly Clear 79 26.1 37 2.7 22 22 NW 14 22 29.64 1004 10 16 0.00 0.00
10:55 pm 22:55 Clear 79 25.9 38 3.2 23 23 WNW 15 24 29.65 1004 10 16 0.00 0.00
11:55 pm 23:55 Clear 77 24.9 36 2.3 23 23 WNW 5 7 29.64 1004 10 16 0.00 0.00

Powered by Vaisala Xweather